Calhoun, IL

8:28 PM CDT on September 28, 2016 (GMT -0500)
Olney-Noble

Weather History for KOLY - January, 2013

Change the Weather History Date:

Thursday, January 31, 2013

  Actual Average (KEVV) Record (KEVV)
Temperature  
Mean Temperature 22 °F 33 °F  
Max Temperature 32 °F 42 °F 68 °F (1989)
Min Temperature 12 °F 24 °F -14 °F (1965)
Degree Days  
Heating Degree Days 43 32  
Month to date heating degree days 1010  
Since 1 July heating degree days 2779  
Cooling Degree Days 0 0  
Month to date cooling degree days 0  
Year to date cooling degree days 0  
Moisture  
Dew Point 18 °F    
Average Humidity 71    
Maximum Humidity 93    
Minimum Humidity 60    
Precipitation  
Precipitation 0.00 in 0.11 in 2.08 in (1915)
Month to date precipitation 3.10  
Year to date precipitation 3.10  
Snow  
Snow 0.00 in 0.10 in 3.70 in (1951)
Month to date snowfall 3.4  
Since 1 July snowfall 6.9  
Snow Depth -    
Sea Level Pressure  
Sea Level Pressure 30.02 in    
Wind  
Wind Speed 17 mph (West)    
Max Wind Speed 30 mph    
Max Gust Speed 37 mph    
Visibility 9 miles    
Events Snow    
T = Trace of Precipitation, MM = Missing Value Source: NWS Daily Summary

Daily Weather History Graph

Daily Weather History Graph

Search for Another Location

Airport or City:

Trip Planner

Search our weather history database for the weather conditions in past years. The results will help you decide how hot, cold, wet, or windy it might be!

Date:

Astronomy

Jan. 31, 2013 Rise Set
Actual Time 6:59 AM CST 5:13 PM CST
Civil Twilight 6:31 AM CST 5:41 PM CST
Nautical Twilight 5:59 AM CST 6:13 PM CST
Astronomical Twilight 5:28 AM CST 6:44 PM CST
Moon 10:11 PM CST (1/31) 9:02 AM CST (1/31)
Length of Visible Light 11h 10m
Length of Day
10h 14m
Waning Gibbous, 79% of the Moon is Illuminated
Jan 31
Waning Gibbous
Feb 3
Last Quarter
Feb 10
New
Feb 17
First Quarter
Feb 25
Full

Hourly Weather History & Observations

Time (CST) Temp. Windchill Dew Point Humidity Pressure Visibility Wind Dir Wind Speed Gust Speed Precip Events Conditions
12:15 AM 30.2 °F 18.5 °F 21.2 °F 69% 29.84 in 10.0 mi West 17.3 mph 25.3 mph N/A   Overcast
12:35 AM 28.4 °F 14.1 °F 21.2 °F 74% 29.85 in 10.0 mi West 24.2 mph 27.6 mph N/A   Overcast
12:55 AM 28.4 °F 15.8 °F 19.4 °F 69% 29.86 in 10.0 mi West 18.4 mph 28.8 mph N/A   Overcast
1:15 AM 28.4 °F 15.1 °F 19.4 °F 69% 29.87 in 10.0 mi West 20.7 mph 28.8 mph N/A   Overcast
1:35 AM 28.4 °F 14.4 °F 17.6 °F 64% 29.88 in 10.0 mi West 23.0 mph 32.2 mph N/A   Overcast
1:55 AM 28.4 °F 16.2 °F 19.4 °F 69% 29.89 in 10.0 mi West 17.3 mph 26.5 mph N/A   Overcast
2:15 AM 28.4 °F 15.8 °F 19.4 °F 69% 29.89 in 10.0 mi West 18.4 mph 27.6 mph N/A Snow Light Snow
2:35 AM 28.4 °F 15.4 °F 19.4 °F 69% 29.90 in 10.0 mi West 19.6 mph 28.8 mph N/A   Overcast
2:55 AM 28.4 °F 15.1 °F 19.4 °F 69% 29.90 in 10.0 mi WNW 20.7 mph 27.6 mph N/A Snow Light Snow
3:15 AM 28.4 °F 15.8 °F 19.4 °F 69% 29.90 in 10.0 mi WNW 18.4 mph 24.2 mph N/A   Overcast
3:35 AM 26.6 °F 14.3 °F 17.6 °F 69% 29.90 in 10.0 mi WNW 16.1 mph 20.7 mph N/A   Overcast
3:55 AM 26.6 °F 15.2 °F 17.6 °F 69% 29.91 in 10.0 mi WNW 13.8 mph 25.3 mph N/A   Overcast
4:15 AM 28.4 °F 17.5 °F 17.6 °F 64% 29.91 in 10.0 mi WNW 13.8 mph 18.4 mph N/A   Overcast
4:35 AM 26.6 °F 16.8 °F 19.4 °F 74% 29.91 in 10.0 mi West 10.4 mph - N/A   Overcast
4:55 AM 28.4 °F 17.5 °F 19.4 °F 69% 29.92 in 10.0 mi West 13.8 mph 20.7 mph N/A   Overcast
5:15 AM 28.4 °F 17.5 °F 21.2 °F 74% 29.92 in 10.0 mi West 13.8 mph 19.6 mph N/A   Overcast
5:35 AM 28.4 °F 17.0 °F 21.2 °F 74% 29.92 in 10.0 mi West 15.0 mph 20.7 mph N/A Snow Light Snow
5:55 AM 26.6 °F 16.2 °F 21.2 °F 80% 29.92 in 10.0 mi WSW 11.5 mph 17.3 mph N/A   Mostly Cloudy
6:15 AM 26.6 °F 15.2 °F 19.4 °F 74% 29.93 in 10.0 mi West 13.8 mph 18.4 mph N/A   Mostly Cloudy
6:35 AM 26.6 °F 18.2 °F 21.2 °F 80% 29.94 in 10.0 mi West 8.1 mph - N/A   Overcast
7:15 AM 26.6 °F 17.5 °F 21.2 °F 80% 29.96 in 10.0 mi West 9.2 mph - N/A   Mostly Cloudy
7:35 AM 28.4 °F 19.1 °F 21.2 °F 74% 29.96 in 10.0 mi WSW 10.4 mph - N/A   Mostly Cloudy
7:55 AM 28.4 °F 19.1 °F 21.2 °F 74% 29.97 in 10.0 mi WSW 10.4 mph 19.6 mph N/A   Overcast
8:15 AM 28.4 °F 17.0 °F 19.4 °F 69% 29.97 in 10.0 mi West 15.0 mph 23.0 mph N/A   Overcast
8:35 AM - - - N/A% 29.99 in 10.0 mi West 15.0 mph 21.9 mph N/A   Unknown
8:55 AM 30.2 °F - 19.4 °F 64% 29.99 in 10.0 mi Calm Calm - N/A   Mostly Cloudy
9:15 AM 30.2 °F 18.1 °F 19.4 °F 64% 29.99 in 10.0 mi West 18.4 mph - N/A   Overcast
9:35 AM 30.2 °F 19.8 °F 17.6 °F 60% 30.00 in 10.0 mi WSW 13.8 mph 21.9 mph N/A   Overcast
9:55 AM 30.2 °F 18.9 °F 19.4 °F 64% 30.01 in 10.0 mi West 16.1 mph - N/A   Overcast
10:15 AM 30.2 °F 20.8 °F 19.4 °F 64% 30.01 in 10.0 mi West 11.5 mph 19.6 mph N/A   Overcast
10:35 AM 30.2 °F 20.2 °F 19.4 °F 64% 30.01 in 10.0 mi West 12.7 mph 21.9 mph N/A   Overcast
10:55 AM 30.2 °F 20.2 °F 21.2 °F 69% 30.01 in 10.0 mi WSW 12.7 mph 23.0 mph N/A   Overcast
11:15 AM 32.0 °F 23.0 °F 21.2 °F 64% 30.01 in 10.0 mi WSW 11.5 mph 19.6 mph N/A   Overcast
11:35 AM 32.0 °F 20.5 °F 19.4 °F 60% 30.00 in 10.0 mi WSW 18.4 mph 24.2 mph N/A   Overcast
11:55 AM 32.0 °F 22.1 °F 19.4 °F 60% 30.00 in 10.0 mi West 13.8 mph 19.6 mph N/A   Overcast
12:15 PM 32.0 °F 22.5 °F 21.2 °F 64% 29.99 in 10.0 mi WSW 12.7 mph 21.9 mph N/A   Overcast
12:35 PM 32.0 °F 21.6 °F 21.2 °F 64% 29.98 in 10.0 mi WSW 15.0 mph 20.7 mph N/A   Overcast
12:55 PM 32.0 °F 22.5 °F 23.0 °F 69% 29.98 in 10.0 mi WSW 12.7 mph 17.3 mph N/A   Overcast
1:15 PM 32.0 °F 22.1 °F 21.2 °F 64% 29.98 in 10.0 mi West 13.8 mph 23.0 mph N/A   Overcast
1:35 PM 32.0 °F 21.2 °F 21.2 °F 64% 29.98 in 10.0 mi West 16.1 mph 21.9 mph N/A   Mostly Cloudy
1:55 PM 32.0 °F 20.8 °F 23.0 °F 69% 29.97 in 10.0 mi West 17.3 mph 20.7 mph N/A Snow Light Snow
2:15 PM 32.0 °F 21.2 °F 23.0 °F 69% 29.97 in 7.0 mi West 16.1 mph 21.9 mph N/A Snow Light Snow
2:35 PM 32.0 °F 23.0 °F 24.8 °F 75% 29.97 in 10.0 mi West 11.5 mph 19.6 mph N/A   Mostly Cloudy
2:55 PM 32.0 °F 21.6 °F 24.8 °F 75% 29.98 in 10.0 mi West 15.0 mph 23.0 mph N/A   Mostly Cloudy
3:15 PM 30.2 °F 19.3 °F 26.6 °F 86% 29.98 in 5.0 mi West 15.0 mph 20.7 mph N/A Snow Light Snow
3:35 PM 30.2 °F 20.2 °F 26.6 °F 86% 29.99 in 2.5 mi West 12.7 mph 19.6 mph N/A Snow Light Snow
3:55 PM 30.2 °F 20.2 °F 28.4 °F 93% 29.99 in 1.0 mi West 12.7 mph - N/A Snow Light Snow
4:15 PM 30.2 °F 20.8 °F 28.4 °F 93% 30.00 in 1.0 mi West 11.5 mph - N/A Snow Light Snow
4:35 PM 28.4 °F 15.4 °F 26.6 °F 93% 30.01 in 1.2 mi West 19.6 mph 26.5 mph N/A Snow Light Snow
4:55 PM 26.6 °F 13.8 °F 23.0 °F 86% 30.01 in - West 17.3 mph 26.5 mph N/A   Unknown
5:15 PM 26.6 °F 11.1 °F 23.0 °F 86% 30.03 in - NW 26.5 mph 32.2 mph N/A   Unknown
5:35 PM 24.8 °F 9.3 °F 19.4 °F 80% 30.06 in - NW 24.2 mph 34.5 mph N/A   Unknown
5:55 PM 23.0 °F 7.2 °F 17.6 °F 80% 30.08 in - NW 23.0 mph 29.9 mph N/A   Overcast
6:15 PM 21.2 °F 6.0 °F 15.8 °F 80% 30.10 in - WNW 19.6 mph 27.6 mph N/A   Overcast
6:35 PM 21.2 °F 4.5 °F 12.2 °F 68% 30.10 in - WNW 24.2 mph 33.4 mph N/A   Scattered Clouds
6:55 PM 19.4 °F 3.6 °F 10.4 °F 68% 30.11 in - NW 19.6 mph 27.6 mph N/A   Clear
7:15 PM 19.4 °F 2.1 °F 10.4 °F 68% 30.13 in - NW 24.2 mph 35.7 mph N/A   Clear
7:35 PM 17.6 °F 1.7 °F 10.4 °F 73% 30.15 in - NW 18.4 mph 28.8 mph N/A   Clear
8:15 PM 17.6 °F 0.9 °F 8.6 °F 68% 30.18 in - NW 20.7 mph 33.4 mph N/A   Mostly Cloudy
8:35 PM 17.6 °F 0.9 °F 8.6 °F 68% 30.19 in - WNW 20.7 mph 32.2 mph N/A   Mostly Cloudy
9:15 PM 17.6 °F -1.9 °F 6.8 °F 63% 30.21 in - WNW 29.9 mph 36.8 mph N/A   Mostly Cloudy
9:35 PM 17.6 °F 0.5 °F 8.6 °F 68% 30.22 in - WNW 21.9 mph 31.1 mph N/A   Overcast
9:55 PM 15.8 °F -2.3 °F 8.6 °F 73% 30.23 in - WNW 23.0 mph 31.1 mph N/A   Overcast
10:15 PM 15.8 °F -4.4 °F 10.4 °F 79% 30.25 in 4.0 mi WNW 29.9 mph 34.5 mph N/A Snow Light Snow
10:35 PM 15.8 °F -2.3 °F 6.8 °F 68% 30.26 in 10.0 mi WNW 23.0 mph 31.1 mph N/A   Mostly Cloudy
10:55 PM 14.0 °F -4.7 °F 5.0 °F 67% 30.27 in 10.0 mi WNW 23.0 mph 29.9 mph N/A   Scattered Clouds
11:15 PM 12.2 °F -7.9 °F 3.2 °F 67% 30.29 in 10.0 mi WNW 25.3 mph 34.5 mph N/A   Clear
11:35 PM 12.2 °F -7.5 °F 1.4 °F 62% 30.29 in 10.0 mi WNW 24.2 mph 32.2 mph N/A   Clear
11:55 PM 12.2 °F -6.3 °F 1.4 °F 62% 30.31 in 10.0 mi WNW 20.7 mph - N/A   Clear